星链-37574(STARLINK-37574)

导读

STARLINK-37574(NORAD编号69464)是美国太空探索技术公司(SpaceX)星链低轨通信星座的成员卫星,属于星链V2 Mini批次,搭载激光星间链路与E-band回程技术,单星通信带宽达100Gbps,支持高速宽带网络传输。该卫星通过猎鹰9号火箭发射入轨,运行于约550公里高度的近地轨道,当前处于正常服役状态,承担全球偏远地区、海洋及高纬度区域的互联网覆盖任务,同时支持星链网络的动态波束切换机制,为用户提供低延时、高可靠的通信服务,是星链第二代网络扩展部署的组成部分。

Basic Information
目录编号:
69464
目录名称:
STARLINK-37574
国际标识:
2026-127X
轨道中心:
EARTH
卫星名称:
星链-37574
卫星全名:
星链-37574(STARLINK-37574)
卫星状态:
在轨 (已飞行88 天)
发射日期:
2026-06-08 UTC
国别 :
美国 (US)
星等 :
--
Orbit Information
数据来源 国际轨道数据
星历时间: 2026-09-03T14:23:29+0800
1天前
查看轨道信息
半长轴: 6840.804km
偏心率: 0.0001316
轨道倾角: 53.159°
近地点辐角 88.164°
升交点赤经 246.468°
平近点角 271.952°
近地点: 461.766km
远地点: 463.568km
周期: 93.847分钟
每日圈数: 15.344125
Detailed Information
固有亮度:
5
最大亮度:
2.5
卫星平台:
Starlink V1.0
覆盖范围:
全球
运营商:
太空探索技术公司
运营商所在国:
美国
制造商(研发单位):
太空探索技术公司
制造商所在国:
美国
使用方式:
暂无
Satellite Introduction
Starlink 计划是 SpaceX 推出的全球卫星互联网项目,通过发射低轨道卫星,为全球尤其是偏远地区提供高速、低延迟的互联网服务。自 2019 年起,Starlink 已部署数千颗卫星,旨在缩小全球数字鸿沟,推动互联网普及。该项目还为军事、航空等行业提供通信支持,带来广泛经济效益。
2D Orbit Map
3D Orbit Map
Orbit Altitude Analysis Chart
Orbit Inclination Analysis Chart
Orbit Comprehensive Analysis Chart
View Comprehensive Chart
Conjunction Data List
Event ID Objects TCA Miss Dist (km) Collision Risk Probability Collision Risk Index (CRI) Action
CDM_260905-212405-995906-946421
2026-09-05T
21:24:40+0000
0.304 km
远距离
3.616773E-4 高风险 0.86
CDM_260906-033706-421306-946421
2026-09-06T
03:37:26+0000
0.337 km
远距离
2.489463E-4 高风险 0.83
CDM_260905-195005-995906-946421
2026-09-05T
19:50:53+0000
2.013 km
极远距离
1.788662E-6 低风险 0.4
CDM_260905-225805-995906-946421
2026-09-05T
22:58:28+0000
2.273 km
极远距离
1.366754E-6 低风险 0.38
CDM_260906-100705-340106-946421
2026-09-06T
10:07:14+0000
2.874 km
极远距离
1.250318E-6 低风险 0.37
CDM_260906-020306-421306-946421
2026-09-06T
02:03:38+0000
2.224 km
极远距离
1.124094E-6 低风险 0.36
CDM_260906-051106-421306-946421
2026-09-06T
05:11:13+0000
2.697 km
极远距离
8.106407E-7 极低风险 0.33